Wright-Patt AFB, OH

4:20 AM EDT on October 18, 2017 (GMT -0400)
Wright-Patterson Air Force Base

Weather History for KFFO - March, 2013

Change the Weather History Date:

Sunday, March 3, 2013

  Actual Average Record
Temperature  
Mean Temperature 27 °F -  
Max Temperature 30 °F 43 °F 68 °F (2008)
Min Temperature 24 °F 24 °F 6 °F (2003)
Degree Days  
Heating Degree Days 38    
Moisture  
Dew Point 16 °F    
Average Humidity 64    
Maximum Humidity 80    
Minimum Humidity 47    
Precipitation  
Precipitation 0.00 in - - ()
Sea Level Pressure  
Sea Level Pressure 30.08 in    
Wind  
Wind Speed 7 mph (NW)    
Max Wind Speed 15 mph    
Max Gust Speed -    
Visibility 10 miles    
Events Snow    
Averages and records for this station are not official NWS values.
T = Trace of Precipitation, MM = Missing Value Source: NWS Daily Summary

Daily Weather History Graph

Daily Weather History Graph

Search for Another Location

Airport or City:

Trip Planner

Search our weather history database for the weather conditions in past years. The results will help you decide how hot, cold, wet, or windy it might be!

Date:

Astronomy

Mar. 03, 2013 Rise Set
Actual Time 7:06 AM EST 6:30 PM EST
Civil Twilight 6:38 AM EST 6:57 PM EST
Nautical Twilight 6:07 AM EST 7:29 PM EST
Astronomical Twilight 5:36 AM EST 8:00 PM EST
Moon 12:07 AM EST (3/3) 10:21 AM EST (3/3)
Length of Visible Light 12h 18m
Length of Day
11h 24m
Waning Gibbous, 64% of the Moon is Illuminated
Mar 3
Waning Gibbous
Mar 4
Last Quarter
Mar 11
New
Mar 19
First Quarter
Mar 27
Full

Hourly Weather History & Observations

Time (EST) Temp. Windchill Dew Point Humidity Pressure Visibility Wind Dir Wind Speed Gust Speed Precip Events Conditions
12:55 AM 26.6 °F 20.0 °F 17.6 °F 69% 30.08 in 10.0 mi NW 5.8 mph - N/A   Overcast
1:16 AM 26.6 °F 20.0 °F 17.6 °F 69% 30.08 in 10.0 mi NW 5.8 mph - N/A Snow Light Snow
1:30 AM 26.6 °F 21.2 °F 17.6 °F 69% 30.09 in 10.0 mi NW 4.6 mph - N/A   Overcast
1:49 AM 26.6 °F 20.0 °F 17.6 °F 69% 30.09 in 10.0 mi Variable 5.8 mph - N/A Snow Light Snow
1:55 AM 26.4 °F 20.9 °F 17.6 °F 69% 30.09 in 10.0 mi NW 4.6 mph - 0.00 in Snow Light Snow
2:55 AM 26.1 °F 20.5 °F 18.5 °F 73% 30.07 in 10.0 mi NW 4.6 mph - 0.00 in   Overcast
3:34 AM 26.6 °F 22.6 °F 19.4 °F 74% 30.06 in 10.0 mi WNW 3.5 mph - N/A Snow Light Snow
3:55 AM 25.9 °F 20.3 °F 18.7 °F 74% 30.06 in 10.0 mi NW 4.6 mph - 0.00 in Snow Light Snow
4:19 AM 26.6 °F 20.0 °F 17.6 °F 69% 30.06 in 10.0 mi North 5.8 mph - N/A   Overcast
4:55 AM 25.5 °F 18.7 °F 17.6 °F 72% 30.06 in 10.0 mi NNW 5.8 mph - 0.00 in   Overcast
5:03 AM 24.8 °F 17.9 °F 17.6 °F 74% 30.06 in 10.0 mi NNW 5.8 mph - N/A Snow Light Snow
5:36 AM 24.8 °F 16.9 °F 19.4 °F 80% 30.07 in 10.0 mi NNW 6.9 mph - N/A Snow Light Snow
5:55 AM 24.8 °F 15.3 °F 18.9 °F 78% 30.07 in 9.0 mi NNW 9.2 mph - 0.00 in Snow Light Snow
6:55 AM 24.3 °F 17.3 °F 18.1 °F 77% 30.07 in 10.0 mi NW 5.8 mph - 0.00 in Snow Light Snow
7:13 AM 24.8 °F 20.5 °F 17.6 °F 74% 30.08 in 10.0 mi NW 3.5 mph - N/A   Overcast
7:27 AM 24.8 °F - 17.6 °F 74% 30.08 in 10.0 mi Calm Calm - N/A Snow Light Snow
7:55 AM 24.3 °F 17.3 °F 18.0 °F 77% 30.08 in 10.0 mi NNE 5.8 mph - 0.00 in Snow Light Snow
8:27 AM 24.8 °F - 17.6 °F 74% 30.09 in 10.0 mi Calm Calm - N/A   Overcast
8:55 AM 25.5 °F - 16.5 °F 69% 30.09 in 10.0 mi Calm Calm - 0.00 in   Overcast
9:50 AM 26.6 °F 17.5 °F 17.6 °F 69% 30.09 in 10.0 mi West 9.2 mph - N/A   Overcast
9:55 AM 27.3 °F 18.4 °F 16.3 °F 63% 30.08 in 10.0 mi West 9.2 mph - N/A   Mostly Cloudy
9:57 AM 26.6 °F 17.5 °F 15.8 °F 64% 30.08 in 7.0 mi West 9.2 mph - N/A Snow Light Snow
10:02 AM 26.6 °F 18.2 °F 17.6 °F 69% 30.08 in 7.0 mi West 8.1 mph - N/A Snow Light Snow
10:31 AM 28.4 °F 20.4 °F 17.6 °F 64% 30.09 in 7.0 mi WNW 8.1 mph - N/A Snow Light Snow
10:39 AM 28.4 °F 19.1 °F 15.8 °F 59% 30.08 in 10.0 mi WNW 10.4 mph - N/A   Overcast
10:44 AM 28.4 °F 21.2 °F 15.8 °F 59% 30.09 in 10.0 mi WNW 6.9 mph - N/A Snow Light Snow
10:47 AM 28.4 °F 20.4 °F 15.8 °F 59% 30.08 in 10.0 mi WNW 8.1 mph - N/A   Overcast
10:55 AM 28.6 °F 18.2 °F 14.5 °F 56% 30.08 in 10.0 mi WNW 12.7 mph - 0.00 in   Overcast
11:11 AM 28.4 °F 18.5 °F 15.8 °F 59% 30.09 in 10.0 mi NNW 11.5 mph - N/A   Overcast
11:35 AM 28.4 °F 17.5 °F 15.8 °F 59% 30.08 in 10.0 mi WNW 13.8 mph - N/A Snow Light Snow
11:39 AM 28.4 °F 17.5 °F 17.6 °F 64% 30.08 in 10.0 mi NW 13.8 mph - N/A Snow Light Snow
11:55 AM 28.8 °F 20.9 °F 15.3 °F 57% 30.08 in 10.0 mi WNW 8.1 mph - 0.00 in   Overcast
12:55 PM 30.0 °F 19.5 °F 12.4 °F 48% 30.07 in 10.0 mi NW 13.8 mph - 0.00 in   Overcast
1:55 PM 29.8 °F 19.8 °F 12.4 °F 48% 30.05 in 10.0 mi NW 12.7 mph - N/A   Overcast
2:55 PM 30.6 °F 19.8 °F 12.2 °F 47% 30.05 in 10.0 mi NW 15.0 mph - N/A   Overcast
3:55 PM 30.4 °F 20.5 °F 13.6 °F 50% 30.06 in 10.0 mi West 12.7 mph - N/A   Overcast
4:55 PM 30.2 °F 20.8 °F 12.9 °F 49% 30.06 in 10.0 mi WNW 11.5 mph - N/A   Overcast
5:55 PM 29.7 °F 20.7 °F 12.2 °F 48% 30.07 in 10.0 mi WNW 10.4 mph - N/A   Overcast
6:55 PM 29.5 °F 21.8 °F 12.7 °F 50% 30.09 in 10.0 mi WNW 8.1 mph - N/A   Overcast
7:55 PM 29.3 °F 22.3 °F 13.1 °F 51% 30.10 in 10.0 mi WNW 6.9 mph - N/A   Overcast
8:55 PM 29.1 °F 24.1 °F 12.9 °F 51% 30.11 in 10.0 mi West 4.6 mph - N/A   Overcast
9:55 PM 28.6 °F 24.8 °F 14.0 °F 54% 30.10 in 10.0 mi WNW 3.5 mph - N/A   Overcast
10:55 PM 27.1 °F 21.8 °F 12.7 °F 55% 30.09 in 10.0 mi West 4.6 mph - N/A   Mostly Cloudy
11:55 PM 25.7 °F 21.5 °F 14.9 °F 64% 30.10 in 10.0 mi West 3.5 mph - N/A   Scattered Clouds